[Iaude] MPEC M97: 2024 MU [a=1.05,e=0.12,i=9.0,H=26.0]

mpec at cfa.harvard.edu mpec at cfa.harvard.edu
Thu Jun 27 18:08:04 EDT 2024


M.P.E.C. 2024-M97                                 Issued 2024 June 27, 22:06 UT

     The Minor Planet Electronic Circulars contain information on unusual
         minor planets, routine data on comets and natural satellites,
         and occasional editorial announcements.  They are published
    on behalf of Division F of the International Astronomical Union by the
          Minor Planet Center, Smithsonian Astrophysical Observatory,
                          Cambridge, MA 02138, U.S.A.
			  
             Prepared using the Tamkin Foundation Computer Network

                              MPC at CFA.HARVARD.EDU
            URL https://www.minorplanetcenter.net/    ISSN 1523-6714

                                    2024 MU                                     


Observations:
     K24M00U* C2024 06 26.29015516 43 06.186+13 27 31.60         21.14wXEM097F52
     K24M00U  C2024 06 26.30201016 43 05.822+13 24 36.81         20.93wXEM097F52
     K24M00U  C2024 06 26.31396616 43 05.427+13 21 39.96         21.27wXEM097F52
     K24M00U  C2024 06 26.40853116 43 01.970+12 58 15.90         20.76GVEM097F52
     K24M00U 1C2024 06 26.90073116 43 24.945+10 56 02.34         21.1 GVEM097Z84
     K24M00U 1C2024 06 26.91090816 43 24.690+10 53 32.82         21.5 GVEM097Z84
     K24M00U 1C2024 06 26.92223316 43 24.437+10 50 46.47         21.4 GVEM097Z84
     K24M00U KC2024 06 26.98128016 43 21.28 +10 35 54.6                VEM097104
     K24M00U hC2024 06 26.98437416 43 23.290+10 34 53.22               VEM097J95
     K24M00U KC2024 06 27.00012316 43 21.04 +10 31 15.9          20.4 GVEM097104
     K24M00U hC2024 06 27.00824616 43 23.134+10 29 01.03               VEM097J95
     K24M00U KC2024 06 27.10617716 43 34.04 +10 05 34.3          20.7 GVEM097H21
     K24M00U KC2024 06 27.10902216 43 34.00 +10 04 52.8          20.7 GVEM097H21
     K24M00U KC2024 06 27.11186816 43 33.95 +10 04 11.4          20.8 GVEM097H21
     K24M00U KC2024 06 27.11604016 43 33.88 +10 03 10.4          21.1 GVEM097H21
     K24M00U KC2024 06 27.90017816 43 58.67 +06 53 10.5          20.7 GVEM097L01
     K24M00U KC2024 06 27.90314216 43 58.66 +06 52 27.0          20.8 GVEM097L01
     K24M00U KC2024 06 27.90462316 43 58.58 +06 52 06.0          21.1 GVEM097L01
     K24M00U IC2024 06 27.90610416 43 58.53 +06 51 45.0          20.9 GVEM097L01

Observer details:
104 San Marcello Pistoiese.  Observers P. Bacci, M. Maestripieri.  Measurer P.
    Bacci.  0.60-m f/4.0 reflector + CCD.
F52 Pan-STARRS 2, Haleakala.  Observers J. Herman, T. Lowe, P. Minguez, A.
    Schultz, I. Smith.  Measurers K. Chambers, T. de Boer, J. Fairlamb, H.
    Gao, M. Huber, C.-C. Lin, E. Magnier, Y. Ramanjooloo, R. Wainscoat, R.
    Weryk.  1.8-m Ritchey-Chretien + CCD.
H21 Astronomical Research Observatory, Westfield.  Observer R. Holmes.
    Measurers T. Linder, R. Holmes, L. Horn.  0.81-m f/4.0 astrograph + CCD.
J95 Great Shefford.  Observer P. Birtwhistle.  0.41-m f/6.3 Schmidt-Cassegrain
    + CCD.
L01 Visnjan Observatory, Tican.  Observer K. Korlevic.  1.0-m f/2.9 reflector
    + CCD.
Z84 Calar Alto-Schmidt.  Observers M. Micheli, F. Ocana, R. Kresken, L.
    Conversi.  Measurer M. Micheli.  0.8-m f/3 Schmidt + CCD.

Orbital elements:
2024 MU                                                  Earth MOID = 0.0173 AU
Epoch 2024 Mar. 31.0 TT = JDT 2460400.5                 MPC                     
M   2.47594              (2000.0)            P               Q                  
n   0.91102087     Peri.   74.09251     -0.98748491     -0.03863984             
a   1.0538622      Node   103.50290     -0.01909965     -0.93308820             
e   0.1229758      Incl.    9.04753     +0.15655273     -0.35756590             
P   1.08           H   26.04          G   0.15           U   7                  
Residuals in seconds of arc
240626 F52  0.0   0.2-    240626 104 (0.1+  1.6-)   240627 H21  0.2+  0.1-
240626 F52  0.0   0.1+    240626 J95  0.4-  0.7-    240627 L01  0.1+  0.5+
240626 F52  0.0   0.0     240627 104 (0.4-  1.8-)   240627 L01  0.6+  0.4-
240626 F52  0.3+  0.8+    240627 J95  0.3+  0.9-    240627 L01  0.2-  0.1-
240626 Z84  0.0   0.1+    240627 H21  0.1-  0.2-    240627 L01  0.6-  0.1+
240626 Z84  0.1-  0.1+    240627 H21  0.1+  0.1-
240626 Z84  0.3+  0.2+    240627 H21  0.1+  0.0

Ephemeris:
2024 MU                  a,e,i = 1.05, 0.12, 9                   q = 0.9243
Date    TT    R. A. (2000) Decl.     Delta      r    Elong.  Phase     V
2024 05 28    16 08 58.8 +83 31 47   0.1009  0.9921    75.0    99.3    24.6
...
2024 06 12    16 34 39.7 +62 08 37   0.06405 1.0222    94.2    82.2    23.0
...
2024 06 20    16 39 25.4 +38 46 23   0.05047 1.0387   115.3    62.2    21.9
...
2024 06 26    16 42 50.4 +14 40 14   0.04814 1.0512   135.2    43.0    21.2
2024 06 27    16 43 26.2 +10 33 15   0.04862 1.0532   138.1    40.1    21.2
2024 06 28    16 44 02.8 +06 31 21   0.04936 1.0553   140.8    37.5    21.1
...
2024 07 04    16 48 12.0 -14 16 32   0.05864 1.0676   149.3    29.1    21.3
...
2024 07 12    16 55 53.2 -31 31 56   0.08009 1.0835   145.4    32.2    22.1
...
2024 07 27    17 18 11.1 -45 17 30   0.1331  1.1113   133.5    41.6    23.5

A. U. Tomatic                (C) Copyright 2024 MPC           M.P.E.C. 2024-M97





More information about the Iaude mailing list